Terminal Aerodrome Forecast
Issued by NWS

Home | Current Version | Previous Version | Graphics & Text | Print | Product List | Glossary On
Versions: 1 2 3 4 5 6 7 8 9 10 11 12 13 14 15 16 17 18 19
000
FTUS43 KFGF 280500
TAFBJI
TAF
KBJI 280520Z 2806/2906 21004KT P6SM SCT250
     FM281000 19005KT P6SM SCT060
     FM281500 18009KT P6SM BKN060=

USA.gov is the U.S. government's official web portal to all federal, state and local government web resources and services.